Weather History for KLNL - February, 2013

Change the Weather History Date:

Monday, February 25, 2013

  Actual Average (KEGV) Record (KEGV)
Temperature  
Mean Temperature 28 °F -  
Max Temperature 32 °F 25 °F 46 °F (1998)
Min Temperature 23 °F 8 °F -23 °F (2003)
Degree Days  
Heating Degree Days 38    
Moisture  
Dew Point 24 °F    
Average Humidity 83    
Maximum Humidity 93    
Minimum Humidity 69    
Precipitation  
Precipitation 0.09 in - - ()
Sea Level Pressure  
Sea Level Pressure 30.05 in    
Wind  
Wind Speed 1 mph (SSW)    
Max Wind Speed 8 mph    
Max Gust Speed -    
Visibility 10 miles    
Events      
Averages and records for this station are not official NWS values.
T = Trace of Precipitation, MM = Missing Value Source: NWS Daily Summary

Daily Weather History Graph

Daily Weather History Graph

Search for Another Location

Airport or City:

Trip Planner

Search our weather history database for the weather conditions in past years. The results will help you decide how hot, cold, wet, or windy it might be!

Date:

Astronomy

Feb. 25, 2013 Rise Set
Actual Time 6:42 AM CST 5:37 PM CST
Civil Twilight 6:12 AM CST 6:08 PM CST
Nautical Twilight 5:37 AM CST 6:42 PM CST
Astronomical Twilight 5:02 AM CST 7:17 PM CST
Moon 5:54 PM CST (2/25) 6:10 AM CST (2/25)
Length of Visible Light 11h 55m
Length of Day
10h 55m
Full, 100% of the Moon is Illuminated
Feb 25
Full
Feb 25
Full
Mar 4
Last Quarter
Mar 11
New
Mar 19
First Quarter

Hourly Weather History & Observations

Time (CST) Temp. Windchill Dew Point Humidity Pressure Visibility Wind Dir Wind Speed Gust Speed Precip Events Conditions
12:15 AM 23.0 °F - 21.2 °F 93% 30.05 in 10.0 mi Calm Calm - N/A   Overcast
12:35 AM 23.0 °F - 21.2 °F 93% 30.05 in 10.0 mi Calm Calm - N/A   Overcast
12:55 AM 23.0 °F - 21.2 °F 93% 30.05 in 10.0 mi Calm Calm - N/A   Overcast
1:15 AM 23.0 °F - 21.2 °F 93% 30.06 in 10.0 mi Calm Calm - N/A   Overcast
1:35 AM 23.0 °F - 21.2 °F 93% 30.06 in 10.0 mi Calm Calm - N/A   Overcast
1:55 AM 23.0 °F - 21.2 °F 93% 30.07 in 10.0 mi Calm Calm - N/A   Overcast
2:15 AM 23.0 °F - 21.2 °F 93% 30.06 in 10.0 mi Calm Calm - N/A   Overcast
2:35 AM 23.0 °F - 21.2 °F 93% 30.06 in 10.0 mi Calm Calm - N/A   Overcast
2:55 AM 23.0 °F - 21.2 °F 93% 30.06 in 10.0 mi Calm Calm - N/A   Overcast
3:15 AM 23.0 °F - 21.2 °F 93% 30.06 in 10.0 mi Calm Calm - N/A   Overcast
3:35 AM 23.0 °F - 21.2 °F 93% 30.06 in 10.0 mi Calm Calm - N/A   Overcast
3:55 AM 23.0 °F - 21.2 °F 93% 30.06 in 10.0 mi Calm Calm - N/A   Overcast
4:15 AM 23.0 °F - 21.2 °F 93% 30.05 in 10.0 mi Calm Calm - N/A   Overcast
4:35 AM 23.0 °F - 21.2 °F 93% 30.05 in 10.0 mi Calm Calm - N/A   Overcast
4:55 AM 23.0 °F - 21.2 °F 93% 30.05 in 10.0 mi Calm Calm - N/A   Overcast
5:15 AM 24.8 °F - 21.2 °F 86% 30.05 in 10.0 mi Calm Calm - N/A   Overcast
5:35 AM 23.0 °F - 21.2 °F 93% 30.05 in 10.0 mi Calm Calm - N/A   Overcast
5:55 AM 23.0 °F - 21.2 °F 93% 30.05 in 10.0 mi Calm Calm - N/A   Overcast
6:15 AM 23.0 °F - 21.2 °F 93% 30.05 in 10.0 mi Calm Calm - N/A   Overcast
6:35 AM 23.0 °F - 21.2 °F 93% 30.06 in 10.0 mi Calm Calm - N/A   Overcast
6:55 AM 23.0 °F - 21.2 °F 93% 30.06 in 10.0 mi Calm Calm - N/A   Overcast
7:15 AM 23.0 °F - 21.2 °F 93% 30.06 in 10.0 mi Calm Calm - N/A   Overcast
7:35 AM 24.8 °F - 23.0 °F 93% 30.07 in 10.0 mi Calm Calm - N/A   Overcast
7:55 AM 26.6 °F - 23.0 °F 86% 30.07 in 10.0 mi Calm Calm - N/A   Overcast
8:15 AM 26.6 °F - 23.0 °F 86% 30.08 in 10.0 mi Calm Calm - N/A   Overcast
8:35 AM 28.4 °F 24.6 °F 23.0 °F 80% 30.08 in 10.0 mi SSW 3.5 mph - N/A   Overcast
8:55 AM 28.4 °F 23.3 °F 23.0 °F 80% 30.08 in 10.0 mi SW 4.6 mph - N/A   Overcast
9:15 AM 28.4 °F - 23.0 °F 80% 30.08 in 10.0 mi Calm Calm - N/A   Overcast
9:35 AM 30.2 °F 26.7 °F 23.0 °F 75% 30.07 in 10.0 mi SSW 3.5 mph - N/A   Overcast
9:55 AM 30.2 °F 25.4 °F 23.0 °F 75% 30.07 in 10.0 mi WSW 4.6 mph - N/A   Overcast
10:15 AM 30.2 °F - 23.0 °F 75% 30.07 in 10.0 mi Calm Calm - N/A   Overcast
10:35 AM 30.2 °F 26.7 °F 23.0 °F 75% 30.06 in 10.0 mi SE 3.5 mph - N/A   Overcast
10:55 AM 32.0 °F - 23.0 °F 69% 30.07 in 10.0 mi Calm Calm - N/A   Overcast
11:15 AM 32.0 °F 28.7 °F 23.0 °F 69% 30.07 in 10.0 mi SSW 3.5 mph - 0.01 in   Overcast
11:35 AM 32.0 °F 27.5 °F 23.0 °F 69% 30.06 in 10.0 mi South 4.6 mph - 0.01 in   Mostly Cloudy
11:55 AM 32.0 °F 26.4 °F 23.0 °F 69% 30.06 in 10.0 mi South 5.8 mph - 0.03 in   Overcast
12:15 PM 32.0 °F 25.6 °F 23.0 °F 69% 30.05 in 10.0 mi SW 6.9 mph - N/A   Overcast
12:35 PM 32.0 °F 24.8 °F 23.0 °F 69% 30.05 in 10.0 mi South 8.1 mph - 0.02 in   Overcast
12:55 PM 32.0 °F 26.4 °F 23.0 °F 69% 30.04 in 10.0 mi South 5.8 mph - 0.02 in   Overcast
1:15 PM 32.0 °F 25.6 °F 23.0 °F 69% 30.04 in 10.0 mi SSW 6.9 mph - 0.01 in   Overcast
1:35 PM 32.0 °F 27.5 °F 23.0 °F 69% 30.04 in 10.0 mi South 4.6 mph - 0.02 in   Overcast
1:55 PM 32.0 °F 28.7 °F 23.0 °F 69% 30.03 in 10.0 mi South 3.5 mph - 0.02 in   Overcast
2:15 PM 32.0 °F 27.5 °F 23.0 °F 69% 30.03 in 10.0 mi South 4.6 mph - 0.01 in   Overcast
2:35 PM 32.0 °F 28.7 °F 23.0 °F 69% 30.03 in 10.0 mi South 3.5 mph - 0.01 in   Overcast
2:55 PM 32.0 °F 27.5 °F 24.8 °F 75% 30.03 in 10.0 mi South 4.6 mph - 0.01 in   Overcast
3:15 PM 32.0 °F 28.7 °F 24.8 °F 75% 30.03 in 10.0 mi South 3.5 mph - N/A   Overcast
3:35 PM 32.0 °F 27.5 °F 24.8 °F 75% 30.03 in 10.0 mi South 4.6 mph - N/A   Overcast
3:55 PM 32.0 °F 28.7 °F 24.8 °F 75% 30.02 in 10.0 mi SW 3.5 mph - 0.01 in   Overcast
4:15 PM 32.0 °F 28.7 °F 24.8 °F 75% 30.03 in 10.0 mi SSE 3.5 mph - N/A   Overcast
4:35 PM 32.0 °F - 24.8 °F 75% 30.03 in 10.0 mi Calm Calm - N/A   Overcast
4:55 PM 32.0 °F 28.7 °F 26.6 °F 80% 30.03 in 10.0 mi South 3.5 mph - N/A   Overcast
5:15 PM 32.0 °F - 26.6 °F 80% 30.03 in 10.0 mi Calm Calm - N/A   Overcast
5:35 PM 32.0 °F - 26.6 °F 80% 30.03 in 10.0 mi Calm Calm - N/A   Overcast
5:55 PM 32.0 °F - 26.6 °F 80% 30.03 in 10.0 mi Calm Calm - N/A   Overcast
6:15 PM 32.0 °F - 26.6 °F 80% 30.04 in 10.0 mi Calm Calm - N/A   Overcast
6:35 PM 32.0 °F - 26.6 °F 80% 30.04 in 10.0 mi Calm Calm - N/A   Overcast
6:55 PM 32.0 °F - 26.6 °F 80% 30.05 in 10.0 mi Calm Calm - N/A   Overcast
7:15 PM 32.0 °F - 26.6 °F 80% 30.04 in 10.0 mi Calm Calm - N/A   Overcast
7:35 PM 32.0 °F - 26.6 °F 80% 30.04 in 10.0 mi Calm Calm - N/A   Overcast
7:55 PM 32.0 °F - 26.6 °F 80% 30.04 in 10.0 mi Calm Calm - N/A   Overcast
8:15 PM 30.2 °F - 26.6 °F 86% 30.04 in 10.0 mi Calm Calm - N/A   Overcast
8:35 PM 32.0 °F - 26.6 °F 80% 30.05 in 10.0 mi Calm Calm - N/A   Overcast
8:55 PM 32.0 °F - 26.6 °F 80% 30.04 in 10.0 mi Calm Calm - N/A   Overcast
9:15 PM 30.2 °F - 26.6 °F 86% 30.04 in 10.0 mi Calm Calm - N/A   Overcast
9:35 PM 30.2 °F - 26.6 °F 86% 30.03 in 10.0 mi Calm Calm - N/A   Overcast
9:55 PM 30.2 °F - 26.6 °F 86% 30.04 in 10.0 mi Calm Calm - N/A   Overcast
10:15 PM 30.2 °F - 26.6 °F 86% 30.03 in 10.0 mi Calm Calm - N/A   Overcast
10:35 PM 30.2 °F - 26.6 °F 86% 30.03 in 10.0 mi Calm Calm - N/A   Overcast
10:55 PM 30.2 °F - 26.6 °F 86% 30.03 in 10.0 mi Calm Calm - N/A   Overcast
11:15 PM 28.4 °F - 26.6 °F 93% 30.03 in 7.0 mi Calm Calm - N/A   Overcast
11:35 PM 28.4 °F - 26.6 °F 93% 30.03 in 10.0 mi Calm Calm - N/A   Overcast
11:55 PM 28.4 °F - 26.6 °F 93% 30.04 in 10.0 mi Calm Calm - N/A   Overcast